Погода в Юсте

Погода в Юсте : погода сейчас, прогноз погоды и архив. Всё, что Вы хотите узнать о погоде в Юсте!

Хотите узнать прогноз погоды в Юсте? Тогда Вам сюда: Погода в Юсте

Поиск расширенной информации на нашем сайте:

Другие новости

Новости СМИ2

Главная страница сайта

Новости сайта

03.07.2017

Напоминаем, что на нашем специализированном сайте Метеоцентр.Азия вы можете получить высокодетализированные автоматические прогнозы погоды по пунктам России, СНГ и мира в авиационном формате (включающие направление и скорость ветра, видимость, явления погоды, количество и форму облачности, нижнюю и верхнюю границу облачности).


Погода в Юсте - сегодня

Время (UTC), дата Ветер
(°,м/с) 
Видим.   Явления Облачность Т
(°С)
Тd
(°С)
f(%) Тe
(°С)
Pmin
(гПа)
dP
(гПа)
Po
(мм)
O2
(г/м3)
Тmin Tmax R s Состояние
почвы
21 17.04.18 220 (ЮЗ) 10 км    4/0 средняя 
[Ac trans]
+8.1 +3.3 72 +7  1022.1  0.7  766  299           
00 18.04.18 230 (ЮЗ) 10 км    ясно 
+6.9 +2.5 74 +6  1022.3  0.3  767  301           
03 18.04.18 230 (ЮЗ) 20000 м    3/0 верхняя 
[Ci fib]
+5.4 +2.1 79 +4  1022.8  0.4  767  303  +4.3        сухая 
06 18.04.18 240 (ЮЗ) 20000 м    9/0 верхняя 
[Cs]
+17 +3.1 39 +17  1022.8  767  290           
09 18.04.18 220 (ЮЗ) 20000 м    10/0 средняя 
[As op]
+19.8 +0.9 28 +20  1021.9  -0.9  766  288           
12 18.04.18 230 (ЮЗ) 6{10}  20000 м    9/0 средняя, верхняя 
[As trans|Cs]
+20.6 +0.6 26 +21  1020.2  -1.7  765  286           
15 18.04.18 210 (ЮЗ) 4{11}  20000 м    8/0 средняя, верхняя 
[Ac As|Cs]
+18.7 -0.1 28 +19  1019  -1.1  764  288    +21       
18 18.04.18 190 (Ю) 10 км    6/0 средняя 
[As trans]
+13.7 +1.4 43 +13  1018  -1.1  763  293           
21 18.04.18 200 (Ю) 6{11}  10 км    9/0 средняя 
[Ac As]
+13 -0.9 38 +12  1016.4  -1.5  762  293           
00 19.04.18 190 (Ю) 10 км    9/0 средняя 
[Ac As]
+11.7 -3 36 +11  1014.3  -2.1  761  294           
03 19.04.18 190 (Ю) 20000 м    9/0 средняя 
[Ac As]
+10.5 -1.4 43 +10  1011.3  -3  758  294  +10.4        сухая 
06 19.04.18 190 (Ю) 20000 м    9/0 средняя 
[Ac As]
+13.2 +3.9 53 +13  1009.4  -1.9  757  290           
09 19.04.18 240 (ЮЗ) 6-10{12}  20000 м    9/4 600 м средняя 
[Sc|Ac As]
+19.2 +7.2 46 +19  1007.2  -2.3  755  283           
12 19.04.18 280 (З) 8-11{15}  4000 м  пыльная буря  10/8 300 м кучево-дожд., средняя 
[Cb calv|Ac As]
+16.1 +5.1 48 +15  1006.3  -0.8  755  286           
15 19.04.18 240 (ЮЗ) 20000 м    3/0 средняя 
[Ac trans]
+16.1 +6 51 +16  1004.9  -1.5  753  286    +19.9       
18 19.04.18 190 (Ю) 10 км    10/0 средняя 
[Ac und]
+12.1 +6.3 68 +13  1003.9  -1  753  289           
21 19.04.18 240 (ЮЗ) 10 км  {ливн. осадки}  10/10 600 м кучево-дожд. 
[Cb calv]
+11.1 +7.3 77 +10  1003.2  -0.7  752  290           
00 20.04.18 200 (Ю) 10 км  {ливн. осадки}  ясно 
+7.9 +5.9 87 +7  1002  -1.2  751  293           
03 20.04.18 200 (Ю) 20000 м    10/0 средняя 
[Ac und]
+9.3 +7.6 89 +8  1000.9  -1  750  291  +7.8    0.0    сухая 
06 20.04.18 230 (ЮЗ) 20000 м  в посл. час ливневой дождь  9/8 600 м кучево-дожд., средняя 
[Cb calv|Ac cuf]
+11 +9.1 88 +10  1000.6  -0.4  750  289           
09 20.04.18 250 (З) 7-12{12}  20000 м    8/6 1000 м средняя 
[Cu med, cong|Ac cuf]
+14.5 +6.8 60 +14  1000.5  -0.1  750  286           
12 20.04.18 240 (ЮЗ) 7-12{13}  20000 м    8/6 1000 м средняя 
[Cu med, cong|Ac cuf]
+15.1 +5.9 54 +14  1001.2  0.7  751  286           
15 20.04.18 250 (З) 6{12}  20000 м    4/3 1000 м верхняя 
[Cu med, cong|Ci fib]
+12.2 +5.2 62 +11  1001.9  0.8  751  289    +15.7  0.4     
18 20.04.18 230 (ЮЗ) 10 км    ясно 
+8 +6 87 +8  1003.5  1.5  752  294           
21 20.04.18 250 (З) 10 км    ясно 
+6.1 +5.6 97 +5  1004  0.5  753  296           
Время (UTC), дата Ветер
(°,м/с) 
Видим.   Явления Облачность Т
(°С)
Тd
(°С)
f(%) Тe
(°С)
Pmin
(гПа)
dP
(гПа)
Po
(мм)
O2
(г/м3)
Тmin Tmax R s Состояние
почвы

Для получения пояснительной информации подведите курсор к названию столбца.

ПОГОДА в Юсте - архив

Всё, что Вы хотите узнать о погоде в Юсте - удобно и подробно!

Выберите нужную дату (начиная с 1 января 2015* года) и нажмите кнопку "Найти".
Будут отображены архивные сводки погоды по пункту Юста, начиная с указанной даты.


Отображать данные в формате CSV (для использования в таблицах Excel)


Внимание! Наш архив погоды предназначен исключительно для личного некоммерческого использования в познавательных целях. Если Вам необходимы официальные справки о состоянии погоды (для производственных, юридических, коммерческих и т.п. целей), обращайтесь в органы Росгидромета.

*Примечание: данная дата относится к архиву по метеостанциям СССР (Россия, СНГ, Балтия).
Архив по метеостанциям Зарубежной Европы и Азии (кроме Китая) хранится 10 дней, по другим регионам земного шара (Китай, Африка, Америка, Австралия, Океания) - 1 день.

Юста - район местоположения метеостанции


Название, широта, долгота, высота метеостанции:
Юста 47.1°ш. 46.3°д. 2 м над ур. моря [Российская Федерация]

Дополнительная информация

В oтличие oт бoльшинства пoгoдных сайтoв мы публикуем пoдрoбную метеoинфoрмацию в детальнoм прoфессиoнальнoм фoрмате.

Характеристики температуры и влажнoсти вoздуха измеряются на высoте 2 м в тени вдали oт зданий и деревьев.
Скoрoсть ветра измеряется на высoте 10 м (на урoвне рoста челoвека скoрoсть ветра ниже в 1.5-2 раза). Если метеoстанция нахoдится в гoрoде или в лесу, тo скoрoсть ветра занижена на 2-4 м/с пo сравнению с oткрытым местoм. Скoрoсть ветра над акватoриями крупных рек и oзёр, а также на вершинах хoлмoв на 2-5 м/с выше, чем в oбычных услoвиях.
Атмoсфернoе давление в разных тoчках местнoсти мoжет значительнo oтличаться oт давления на метеoстанции, в зависимoсти oт услoвий рельефа (при пoдъёме на 10 м давление пoнижается примернo на 1 мм рт.ст.).